Location: *
(48.8489°N, 2.3218°E)
Time: 08:44:06
(UTC+00:00)

Spot 2 Rocket - Pass Details

Date: 23 August 2019
Orbit: 758 x 772 km, 98.6° (Epoch: 22 October)

Event Time Altitude Azimuth Distance (km) Brightness Sun altitude
Exits shadow 19:47:58 11° 136° (SE) 2,270 5.3 -9.3°
Maximum altitude 19:52:38 42° 67° (ENE) 1,087 4.0 -10.0°
Drops below altitude 10° 19:57:24 10° 357° (N) 2,314 6.5 -10.6°
Sets 19:59:48 0° 351° (N) 3,242 7.4 -11.0°
